Flight Track Log - Related Links

Times and Time Zones

All times are in EDT time to prevent confusion due to time zone crossing. See the SWA1969 flight status page for this flight to view local times or setup timezone preferences in your user account.

Time Position Orientation Groundspeed Altitude Reporting Facility
EDT Latitude Longitude Course Direction KTS MPH feet Rate Location/Type
11:21AM 39.3000 -94.7333 185° South 143 165 2,000  Level Kansas City TRACON
11:21AM 39.2725 -94.7364 185° South 148 170 2,800 2,020 Climbing Kansas City Center
11:22AM 39.2081 -94.7303 176° South 229 264 5,400 2,226 Climbing Kansas City Center
11:23AM 39.2025 -94.6356 94° East 287 330 7,400 2,710 Climbing Kansas City Center
11:24AM 39.2681 -94.5547 44° Northeast 316 364 11,000 3,290 Climbing Kansas City Center
11:25AM 39.3492 -94.4886 32° Northeast 356 410 14,200 3,339 Climbing Kansas City Center
11:26AM 39.4461 -94.4056 33° Northeast 375 432 17,900 3,097 Climbing Kansas City Center
11:27AM 39.5325 -94.3331 33° Northeast 386 444 20,600 2,661 Climbing Kansas City Center
11:28AM 39.6389 -94.2461 32° Northeast 404 465 23,400 2,371 Climbing Kansas City Center
11:30AM 39.7014 -94.1267 56° Northeast 423 487 25,500 2,081 Climbing Kansas City Center
11:31AM 39.7422 -93.9556 73° East 446 513 27,700 2,112 Climbing Kansas City Center
11:32AM 39.7786 -93.8075 72° East 450 518 29,900 1,584 Climbing Kansas City Center
11:33AM 39.8133 -93.6597 73° East 455 524 31,000 532 Climbing Kansas City Center
11:34AM 39.8536 -93.5014 72° East 465 535 31,000  Level Kansas City Center
11:35AM 39.9000 -93.3033 73° East 479 551 31,000  Level Kansas City Center
11:36AM 39.9386 -93.1383 73° East 482 555 31,000  Level Kansas City Center
11:37AM 39.9797 -92.9739 72° East 479 551 31,000  Level Kansas City Center
11:38AM 40.0167 -92.8114 73° East 479 551 31,000  Level Kansas City Center
11:39AM 40.0633 -92.6144 73° East 482 555 31,000  Level Kansas City Center
11:40AM 40.1033 -92.4425 73° East 480 552 31,000  Level Kansas City Center
11:41AM 40.1392 -92.2894 73° East 482 555 31,000  Level Kansas City Center
11:42AM 40.1761 -92.1239 74° East 482 555 31,000  Level Kansas City Center
11:43AM 40.2200 -91.9269 74° East 477 549 31,000  Level Kansas City Center
11:44AM 40.2569 -91.7631 73° East 475 547 31,000  Level Kansas City Center
11:45AM 40.2933 -91.5972 74° East 477 549 31,000  Level Kansas City Center
11:46AM 40.3292 -91.4328 74° East 476 548 31,000  Level Kansas City Center
11:47AM 40.3675 -91.2669 73° East 473 544 31,000  Level Kansas City Center
11:48AM 40.3975 -91.1336 74° East 476 548 31,000  Level Chicago Center
11:49AM 40.4342 -90.9650 74° East 480 552 31,000  Level Chicago Center
11:50AM 40.4697 -90.7975 74° East 479 551 31,000 -244 Level Chicago Center
11:51AM 40.5133 -90.5950 74° East 481 554 30,500 -726 Descending Chicago Center
11:52AM 40.5472 -90.4294 75° East 471 542 29,500 -1,452 Descending Chicago Center
11:53AM 40.5811 -90.2675 75° East 460 529 27,500 -1,935 Descending Chicago Center
11:54AM 40.6172 -90.0961 74° East 441 507 25,500 -2,032 Descending Chicago Center
11:55AM 40.6475 -89.9492 75° East 421 484 23,300 -1,210 Descending Chicago Center
11:56AM 40.6939 -89.8136 66° East 412 474 23,000 -145 Descending Chicago Center
11:57AM 40.7658 -89.6961 51° Northeast 411 473 23,000 -1,122 Level Chicago Center
11:58AM 40.8406 -89.5664 53° Northeast 438 504 20,700 -2,341 Descending Chicago Center
11:59AM 40.9147 -89.4394 52° Northeast 433 498 18,200 -1,839 Descending Chicago Center
12:00PM 40.9836 -89.3203 53° Northeast 410 472 16,900 -1,210 Descending Chicago Center
12:01PM 41.0642 -89.1800 53° Northeast 407 468 15,700 -1,306 Descending Chicago Center
12:02PM 41.1294 -89.0625 54° Northeast 400 460 14,200 -1,902 Descending Chicago Center
12:03PM 41.1950 -88.9489 52° Northeast 390 449 11,800 -1,756 Descending Chicago Center
12:04PM 41.2550 -88.8397 54° Northeast 369 425 10,600 -871 Descending Chicago Center
12:05PM 41.3078 -88.7458 53° Northeast 321 369 10,000 -1,161 Descending Chicago Center
12:06PM 41.3664 -88.6389 54° Northeast 301 346 8,200 -1,452 Descending Chicago Center
12:07PM 41.4147 -88.5503 54° Northeast 297 342 7,000 -1,065 Descending Chicago Center
12:08PM 41.4383 -88.4522 72° East 282 325 6,000 -488 Descending Chicago Center
12:09PM 41.4636 -88.3586 70° East 273 314 6,000  Level Chicago Center
12:11PM 41.4878 -88.2647 71° East 269 310 6,000  Level Chicago Center
12:12PM 41.5125 -88.1692 71° East 269 310 6,000 -435 Level Chicago Center
12:13PM 41.5378 -88.0736 71° East 269 310 5,100 -484 Descending Chicago Center
12:14PM 41.5628 -87.9789 71° East 268 308 5,000 -390 Descending Chicago Center
12:15PM 41.5900 -87.8675 72° East 265 305 4,300 -829 Descending Chicago Center
12:16PM 41.6178 -87.7775 68° East 267 307 3,300 -780 Descending Chicago Center
12:16PM 41.6500 -87.7333 46° Northeast 264 304 3,000 -306 Descending Chicago TRACON
12:17PM 41.7000 -87.6833 37° Northeast 214 246 2,800 -476 Descending Chicago TRACON
12:18PM 41.7667 -87.6667 11° North 190 219 2,000 -476 Descending Chicago TRACON
12:19PM 41.8000 -87.6833 340° North 157 181 1,800 -450 Descending Chicago TRACON
12:20PM 41.8167 -87.7167 304° West 140 161 1,100 -700 Descending Chicago TRACON

Login

Don't have an account? Register now (free) for customized features, flight alerts, and more!